Time,TemperatureF,DewpointF,PressureIn,WindDirection,WindDirectionDegrees,WindSpeedMPH,WindSpeedGustMPH,Humidity,HourlyPrecipIn,Conditions,Clouds,dailyrainin,SoftwareType,DateUTC
2013-05-28 00:05:00,45.7,35.7,29.77,ENE,63,0.0,0.0,68,0.00,,,0.00,Wunderground v.1.15,2013-05-28 08:05:00,
2013-05-28 00:15:00,44.6,35.4,29.77,ENE,63,0.0,0.0,70,0.00,,,0.00,Wunderground v.1.15,2013-05-28 08:15:00,
2013-05-28 00:20:00,43.6,35.2,29.77,ENE,63,0.0,0.0,72,0.00,,,0.00,Wunderground v.1.15,2013-05-28 08:20:00,
2013-05-28 00:30:00,42.3,34.9,29.78,ENE,63,1.0,2.0,75,0.00,,,0.00,Wunderground v.1.15,2013-05-28 08:30:00,
2013-05-28 00:40:00,41.2,34.2,29.78,ENE,63,2.0,3.0,76,0.00,,,0.00,Wunderground v.1.15,2013-05-28 08:40:00,
2013-05-28 00:50:00,40.9,34.6,29.78,ENE,63,1.0,1.0,78,0.00,,,0.00,Wunderground v.1.15,2013-05-28 08:50:00,
2013-05-28 01:00:00,40.2,33.9,29.78,ENE,63,0.0,0.0,78,0.00,,,0.00,Wunderground v.1.15,2013-05-28 09:00:00,
2013-05-28 01:05:00,39.5,33.8,29.78,ENE,63,0.0,0.0,80,0.00,,,0.00,Wunderground v.1.15,2013-05-28 09:05:00,
2013-05-28 01:15:00,39.5,33.8,29.78,ENE,63,0.0,0.0,80,0.00,,,0.00,Wunderground v.1.15,2013-05-28 09:15:00,
2013-05-28 01:25:00,38.8,33.5,29.78,ENE,63,0.0,0.0,81,0.00,,,0.00,Wunderground v.1.15,2013-05-28 09:25:00,
2013-05-28 01:35:00,38.6,33.3,29.78,ENE,63,0.0,0.0,81,0.00,,,0.00,Wunderground v.1.15,2013-05-28 09:35:00,
2013-05-28 01:45:00,38.8,33.5,29.78,ENE,63,1.0,1.0,81,0.00,,,0.00,Wunderground v.1.15,2013-05-28 09:45:00,
2013-05-28 01:55:00,37.0,32.6,29.78,ENE,63,0.0,1.0,84,0.00,,,0.00,Wunderground v.1.15,2013-05-28 09:55:00,
2013-05-28 02:00:00,36.8,33.3,29.78,ENE,63,0.0,0.0,87,0.00,,,0.00,Wunderground v.1.15,2013-05-28 10:00:00,
2013-05-28 02:10:00,38.0,33.6,29.78,ENE,63,0.0,0.0,84,0.00,,,0.00,Wunderground v.1.15,2013-05-28 10:10:00,
2013-05-28 02:15:00,38.8,34.1,29.78,ENE,63,1.0,2.0,83,0.00,,,0.00,Wunderground v.1.15,2013-05-28 10:15:00,
2013-05-28 02:20:00,39.2,33.5,29.78,ENE,63,1.0,1.0,80,0.00,,,0.00,Wunderground v.1.15,2013-05-28 10:20:00,
2013-05-28 02:30:00,37.5,33.1,29.78,ENE,63,1.0,2.0,84,0.00,,,0.00,Wunderground v.1.15,2013-05-28 10:30:00,
2013-05-28 02:40:00,36.8,32.7,29.78,ENE,63,0.0,0.0,85,0.00,,,0.00,Wunderground v.1.15,2013-05-28 10:40:00,
2013-05-28 02:50:00,36.5,32.7,29.79,ENE,63,1.0,1.0,86,0.00,,,0.00,Wunderground v.1.15,2013-05-28 10:50:00,
2013-05-28 02:55:00,36.3,32.5,29.79,ENE,63,1.0,2.0,86,0.00,,,0.00,Wunderground v.1.15,2013-05-28 10:55:00,
2013-05-28 03:05:00,34.4,30.9,29.79,ENE,63,1.0,3.0,87,0.00,,,0.00,Wunderground v.1.15,2013-05-28 11:05:00,
2013-05-28 03:15:00,33.8,31.2,29.79,ENE,63,0.0,1.0,90,0.00,,,0.00,Wunderground v.1.15,2013-05-28 11:15:00,
2013-05-28 03:20:00,34.0,31.4,29.79,ENE,63,0.0,0.0,90,0.00,,,0.00,Wunderground v.1.15,2013-05-28 11:20:00,
2013-05-28 03:30:00,34.3,31.9,29.79,ENE,63,0.0,0.0,91,0.00,,,0.00,Wunderground v.1.15,2013-05-28 11:30:00,
2013-05-28 03:40:00,34.7,32.1,29.79,ENE,63,2.0,4.0,90,0.00,,,0.00,Wunderground v.1.15,2013-05-28 11:40:00,
2013-05-28 03:50:00,34.4,31.5,29.79,ENE,63,2.0,2.0,89,0.00,,,0.00,Wunderground v.1.15,2013-05-28 11:50:00,
2013-05-28 04:00:00,35.6,33.0,29.79,ENE,63,0.0,0.0,90,0.00,,,0.00,Wunderground v.1.15,2013-05-28 12:00:00,
2013-05-28 04:10:00,36.2,32.7,29.79,ENE,63,1.0,1.0,87,0.00,,,0.00,Wunderground v.1.15,2013-05-28 12:10:00,
2013-05-28 04:20:00,35.8,32.9,29.79,ENE,63,0.0,0.0,89,0.00,,,0.00,Wunderground v.1.15,2013-05-28 12:20:00,
2013-05-28 04:30:00,35.5,32.6,29.79,ENE,63,1.0,1.0,89,0.00,,,0.00,Wunderground v.1.15,2013-05-28 12:30:00,
2013-05-28 04:40:00,34.4,31.5,29.79,ENE,63,1.0,3.0,89,0.00,,,0.00,Wunderground v.1.15,2013-05-28 12:40:00,
2013-05-28 04:50:00,34.1,32.0,29.79,ENE,63,2.0,2.0,92,0.00,,,0.00,Wunderground v.1.15,2013-05-28 12:50:00,
2013-05-28 04:55:00,34.4,32.0,29.79,ENE,63,2.0,2.0,91,0.00,,,0.00,Wunderground v.1.15,2013-05-28 12:55:00,
2013-05-28 05:05:00,34.9,32.3,29.79,ENE,63,1.0,2.0,90,0.00,,,0.00,Wunderground v.1.15,2013-05-28 13:05:00,
2013-05-28 05:15:00,34.7,32.3,29.79,ENE,63,1.0,2.0,91,0.00,,,0.00,Wunderground v.1.15,2013-05-28 13:15:00,
2013-05-28 05:20:00,35.3,32.4,29.79,ENE,63,2.0,2.0,89,0.00,,,0.00,Wunderground v.1.15,2013-05-28 13:20:00,
2013-05-28 05:30:00,34.3,31.9,29.79,ENE,63,0.0,0.0,91,0.00,,,0.00,Wunderground v.1.15,2013-05-28 13:30:00,
2013-05-28 05:40:00,34.7,31.8,29.79,ENE,63,0.0,0.0,89,0.00,,,0.00,Wunderground v.1.15,2013-05-28 13:40:00,
2013-05-28 05:50:00,34.1,31.5,29.79,ENE,63,0.0,0.0,90,0.00,,,0.00,Wunderground v.1.15,2013-05-28 13:50:00,
2013-05-28 06:00:00,34.7,32.1,29.80,ENE,63,0.0,0.0,90,0.00,,,0.00,Wunderground v.1.15,2013-05-28 14:00:00,
2013-05-28 06:05:00,35.0,32.1,29.80,ENE,63,0.0,0.0,89,0.00,,,0.00,Wunderground v.1.15,2013-05-28 14:05:00,
2013-05-28 06:15:00,35.8,32.3,29.80,ENE,63,0.0,0.0,87,0.00,,,0.00,Wunderground v.1.15,2013-05-28 14:15:00,
2013-05-28 06:25:00,36.0,32.5,29.80,ENE,63,0.0,0.0,87,0.00,,,0.00,Wunderground v.1.15,2013-05-28 14:25:00,
2013-05-28 06:35:00,36.6,33.1,29.79,ENE,63,0.0,0.0,87,0.00,,,0.00,Wunderground v.1.15,2013-05-28 14:35:00,
2013-05-28 06:40:00,36.9,33.1,29.79,ENE,63,0.0,0.0,86,0.00,,,0.00,Wunderground v.1.15,2013-05-28 14:40:00,
2013-05-28 06:50:00,37.6,33.8,29.80,ENE,63,0.0,0.0,86,0.00,,,0.00,Wunderground v.1.15,2013-05-28 14:50:00,
2013-05-28 07:00:00,37.9,34.1,29.80,ENE,63,1.0,1.0,86,0.00,,,0.00,Wunderground v.1.15,2013-05-28 15:00:00,
2013-05-28 07:10:00,38.2,34.1,29.80,ENE,63,1.0,2.0,85,0.00,,,0.00,Wunderground v.1.15,2013-05-28 15:10:00,
2013-05-28 07:15:00,38.8,34.7,29.80,ENE,63,2.0,2.0,85,0.00,,,0.00,Wunderground v.1.15,2013-05-28 15:15:00,
2013-05-28 07:25:00,40.5,35.1,29.80,ENE,63,3.0,4.0,81,0.00,,,0.00,Wunderground v.1.15,2013-05-28 15:25:00,
2013-05-28 07:35:00,41.1,35.4,29.80,ENE,63,3.0,3.0,80,0.00,,,0.00,Wunderground v.1.15,2013-05-28 15:35:00,
2013-05-28 07:45:00,41.3,35.3,29.80,ENE,63,2.0,3.0,79,0.00,,,0.00,Wunderground v.1.15,2013-05-28 15:45:00,
2013-05-28 07:50:00,41.2,35.2,29.80,ENE,63,2.0,2.0,79,0.00,,,0.00,Wunderground v.1.15,2013-05-28 15:50:00,
2013-05-28 08:00:00,41.8,35.8,29.80,ENE,63,2.0,2.0,79,0.00,,,0.00,Wunderground v.1.15,2013-05-28 16:00:00,
2013-05-28 08:10:00,42.8,36.1,29.80,ENE,63,2.0,3.0,77,0.00,,,0.00,Wunderground v.1.15,2013-05-28 16:10:00,
2013-05-28 08:20:00,42.9,35.9,29.80,ENE,63,1.0,2.0,76,0.00,,,0.00,Wunderground v.1.15,2013-05-28 16:20:00,
2013-05-28 08:30:00,43.8,36.0,29.80,ENE,63,2.0,4.0,74,0.00,,,0.00,Wunderground v.1.15,2013-05-28 16:30:00,
2013-05-28 08:35:00,44.1,36.3,29.80,ENE,63,2.0,4.0,74,0.00,,,0.00,Wunderground v.1.15,2013-05-28 16:35:00,
2013-05-28 08:45:00,44.5,36.4,29.81,ENE,63,4.0,4.0,73,0.00,,,0.00,Wunderground v.1.15,2013-05-28 16:45:00,
2013-05-28 08:55:00,45.1,36.6,29.81,ENE,63,4.0,4.0,72,0.00,,,0.00,Wunderground v.1.15,2013-05-28 16:55:00,
2013-05-28 09:05:00,45.8,36.6,29.81,ENE,63,2.0,3.0,70,0.00,,,0.00,Wunderground v.1.15,2013-05-28 17:05:00,
2013-05-28 09:10:00,46.0,36.8,29.81,ENE,63,3.0,4.0,70,0.00,,,0.00,Wunderground v.1.15,2013-05-28 17:10:00,
2013-05-28 09:20:00,46.2,36.6,29.81,ENE,63,3.0,5.0,69,0.00,,,0.00,Wunderground v.1.15,2013-05-28 17:20:00,
2013-05-28 09:30:00,46.8,37.2,29.81,ENE,63,2.0,2.0,69,0.00,,,0.00,Wunderground v.1.15,2013-05-28 17:30:00,
2013-05-28 09:40:00,47.3,37.3,29.81,ENE,63,2.0,5.0,68,0.00,,,0.00,Wunderground v.1.15,2013-05-28 17:40:00,
2013-05-28 09:50:00,47.9,37.1,29.82,ENE,63,3.0,3.0,66,0.00,,,0.00,Wunderground v.1.15,2013-05-28 17:50:00,
2013-05-28 10:00:00,49.1,38.2,29.82,ENE,63,2.0,3.0,66,0.00,,,0.00,Wunderground v.1.15,2013-05-28 18:00:00,
2013-05-28 10:10:00,49.8,38.1,29.82,ENE,63,1.0,3.0,64,0.00,,,0.00,Wunderground v.1.15,2013-05-28 18:10:00,
2013-05-28 10:20:00,50.8,37.8,29.82,ENE,63,2.0,2.0,61,0.00,,,0.00,Wunderground v.1.15,2013-05-28 18:20:00,
2013-05-28 10:25:00,51.1,38.1,29.82,ENE,63,1.0,3.0,61,0.00,,,0.00,Wunderground v.1.15,2013-05-28 18:25:00,
2013-05-28 10:35:00,51.4,38.4,29.82,ENE,63,2.0,4.0,61,0.00,,,0.00,Wunderground v.1.15,2013-05-28 18:35:00,
2013-05-28 10:45:00,51.7,38.3,29.82,ENE,63,1.0,2.0,60,0.00,,,0.00,Wunderground v.1.15,2013-05-28 18:45:00,
2013-05-28 10:55:00,50.1,37.6,29.82,ESE,109,4.0,7.0,62,0.00,,,0.00,Wunderground v.1.15,2013-05-28 18:55:00,
2013-05-28 11:05:00,49.1,37.4,29.82,ESE,115,7.0,10.0,64,0.00,,,0.00,Wunderground v.1.15,2013-05-28 19:05:00,
2013-05-28 11:10:00,49.9,37.8,29.82,ESE,112,6.0,6.0,63,0.00,,,0.00,Wunderground v.1.15,2013-05-28 19:10:00,
2013-05-28 11:20:00,50.1,37.6,29.82,ESE,116,7.0,7.0,62,0.00,,,0.00,Wunderground v.1.15,2013-05-28 19:20:00,
2013-05-28 11:30:00,50.5,38.0,29.82,ESE,115,6.0,6.0,62,0.00,,,0.00,Wunderground v.1.15,2013-05-28 19:30:00,
2013-05-28 11:40:00,51.4,38.0,29.82,ESE,115,5.0,5.0,60,0.00,,,0.00,Wunderground v.1.15,2013-05-28 19:40:00,
2013-05-28 11:45:00,52.2,38.3,29.82,ESE,115,4.0,5.0,59,0.00,,,0.00,Wunderground v.1.15,2013-05-28 19:45:00,
2013-05-28 11:55:00,52.8,38.4,29.82,ESE,115,2.0,5.0,58,0.00,,,0.00,Wunderground v.1.15,2013-05-28 19:55:00,
2013-05-28 12:00:00,53.2,38.4,29.82,ESE,115,2.0,5.0,57,0.00,,,0.00,Wunderground v.1.15,2013-05-28 20:00:00,
2013-05-28 12:10:00,52.5,38.1,29.82,ESE,118,5.0,5.0,58,0.00,,,0.00,Wunderground v.1.15,2013-05-28 20:10:00,
2013-05-28 12:20:00,53.2,37.9,29.82,ESE,115,3.0,3.0,56,0.00,,,0.00,Wunderground v.1.15,2013-05-28 20:20:00,
2013-05-28 12:30:00,53.5,38.2,29.82,ESE,115,3.0,3.0,56,0.00,,,0.00,Wunderground v.1.15,2013-05-28 20:30:00,
2013-05-28 12:35:00,54.1,38.3,29.82,ESE,115,2.0,3.0,55,0.00,,,0.00,Wunderground v.1.15,2013-05-28 20:35:00,
2013-05-28 12:45:00,55.7,38.3,29.82,ESE,115,1.0,1.0,52,0.00,,,0.00,Wunderground v.1.15,2013-05-28 20:45:00,
2013-05-28 12:55:00,55.9,38.5,29.82,ESE,115,1.0,2.0,52,0.00,,,0.00,Wunderground v.1.15,2013-05-28 20:55:00,
2013-05-28 13:00:00,55.3,38.0,29.82,ESE,115,2.0,3.0,52,0.00,,,0.00,Wunderground v.1.15,2013-05-28 21:00:00,
2013-05-28 13:10:00,53.8,38.0,29.82,East,94,6.0,6.0,55,0.00,,,0.00,Wunderground v.1.15,2013-05-28 21:10:00,
2013-05-28 13:20:00,53.8,37.5,29.82,SE,128,7.0,7.0,54,0.00,,,0.00,Wunderground v.1.15,2013-05-28 21:20:00,
2013-05-28 13:30:00,54.4,37.1,29.83,SE,132,5.0,6.0,52,0.00,,,0.00,Wunderground v.1.15,2013-05-28 21:30:00,
2013-05-28 13:40:00,53.1,36.4,29.83,SE,133,7.0,7.0,53,0.00,,,0.00,Wunderground v.1.15,2013-05-28 21:40:00,
2013-05-28 13:50:00,52.9,36.2,29.83,SE,128,6.0,8.0,53,0.00,,,0.00,Wunderground v.1.15,2013-05-28 21:50:00,
2013-05-28 13:55:00,53.5,36.3,29.83,SE,132,8.0,8.0,52,0.00,,,0.00,Wunderground v.1.15,2013-05-28 21:55:00,
2013-05-28 14:05:00,54.5,36.7,29.83,ESE,112,5.0,8.0,51,0.00,,,0.00,Wunderground v.1.15,2013-05-28 22:05:00,
2013-05-28 14:15:00,55.3,36.5,29.82,ESE,119,4.0,5.0,49,0.00,,,0.00,Wunderground v.1.15,2013-05-28 22:15:00,
2013-05-28 14:25:00,55.9,36.5,29.82,ESE,114,3.0,4.0,48,0.00,,,0.00,Wunderground v.1.15,2013-05-28 22:25:00,
2013-05-28 14:35:00,56.5,36.5,29.82,ESE,115,2.0,6.0,47,0.00,,,0.00,Wunderground v.1.15,2013-05-28 22:35:00,
2013-05-28 14:45:00,55.7,36.8,29.82,ESE,121,4.0,5.0,49,0.00,,,0.00,Wunderground v.1.15,2013-05-28 22:45:00,
2013-05-28 14:50:00,56.3,35.8,29.82,ESE,121,3.0,3.0,46,0.00,,,0.00,Wunderground v.1.15,2013-05-28 22:50:00,
2013-05-28 15:00:00,56.5,36.0,29.83,ESE,116,3.0,3.0,46,0.00,,,0.00,Wunderground v.1.15,2013-05-28 23:00:00,
2013-05-28 15:05:00,56.3,35.8,29.83,ESE,116,3.0,3.0,46,0.00,,,0.00,Wunderground v.1.15,2013-05-28 23:05:00,
2013-05-28 15:15:00,56.7,36.1,29.82,ESE,111,3.0,4.0,46,0.00,,,0.00,Wunderground v.1.15,2013-05-28 23:15:00,
2013-05-28 15:25:00,56.6,36.0,29.82,ESE,116,4.0,5.0,46,0.00,,,0.00,Wunderground v.1.15,2013-05-28 23:25:00,
2013-05-28 15:35:00,55.9,35.9,29.82,ESE,122,6.0,6.0,47,0.00,,,0.00,Wunderground v.1.15,2013-05-28 23:35:00,
2013-05-28 15:45:00,55.7,35.8,29.83,ESE,122,6.0,8.0,47,0.00,,,0.00,Wunderground v.1.15,2013-05-28 23:45:00,
2013-05-28 15:55:00,56.2,35.7,29.83,ESE,119,6.0,6.0,46,0.00,,,0.00,Wunderground v.1.15,2013-05-28 23:55:00,
2013-05-28 16:05:00,56.7,35.6,29.82,ESE,109,5.0,6.0,45,0.00,,,0.00,Wunderground v.1.15,2013-05-29 00:05:00,
2013-05-28 16:10:00,57.2,34.9,29.82,SE,125,4.0,5.0,43,0.00,,,0.00,Wunderground v.1.15,2013-05-29 00:10:00,
2013-05-28 16:20:00,57.3,35.6,29.82,East,92,4.0,4.0,44,0.00,,,0.00,Wunderground v.1.15,2013-05-29 00:20:00,
2013-05-28 16:30:00,57.0,34.7,29.82,SE,124,4.0,4.0,43,0.00,,,0.00,Wunderground v.1.15,2013-05-29 00:30:00,
2013-05-28 16:40:00,57.5,35.2,29.82,SE,129,3.0,8.0,43,0.00,,,0.00,Wunderground v.1.15,2013-05-29 00:40:00,
2013-05-28 16:50:00,58.1,33.9,29.82,ESE,107,3.0,3.0,40,0.00,,,0.00,Wunderground v.1.15,2013-05-29 00:50:00,
2013-05-28 16:55:00,58.4,34.2,29.82,ESE,107,2.0,3.0,40,0.00,,,0.00,Wunderground v.1.15,2013-05-29 00:55:00,
2013-05-28 17:05:00,59.3,37.4,29.82,ESE,107,2.0,4.0,44,0.00,,,0.00,Wunderground v.1.15,2013-05-29 01:05:00,
2013-05-28 17:15:00,59.6,37.1,29.82,ESE,107,0.0,0.0,43,0.00,,,0.00,Wunderground v.1.15,2013-05-29 01:15:00,
2013-05-28 17:25:00,59.3,36.8,29.82,NNW,341,1.0,1.0,43,0.00,,,0.00,Wunderground v.1.15,2013-05-29 01:25:00,
2013-05-28 17:35:00,57.3,37.8,29.82,North,359,5.0,8.0,48,0.00,,,0.00,Wunderground v.1.15,2013-05-29 01:35:00,
2013-05-28 17:45:00,57.5,36.3,29.81,NNW,344,3.0,6.0,45,0.00,,,0.00,Wunderground v.1.15,2013-05-29 01:45:00,
2013-05-28 17:55:00,57.5,36.3,29.81,North,354,4.0,5.0,45,0.00,,,0.00,Wunderground v.1.15,2013-05-29 01:55:00,
2013-05-28 18:00:00,58.1,36.9,29.81,North,354,3.0,3.0,45,0.00,,,0.00,Wunderground v.1.15,2013-05-29 02:00:00,
2013-05-28 18:10:00,59.5,38.1,29.81,North,356,1.0,1.0,45,0.00,,,0.00,Wunderground v.1.15,2013-05-29 02:10:00,
2013-05-28 18:20:00,59.6,37.6,29.81,NNE,30,2.0,5.0,44,0.00,,,0.00,Wunderground v.1.15,2013-05-29 02:20:00,
2013-05-28 18:30:00,59.0,37.1,29.81,NE,43,3.0,3.0,44,0.00,,,0.00,Wunderground v.1.15,2013-05-29 02:30:00,
2013-05-28 18:40:00,58.3,34.1,29.81,NE,43,2.0,2.0,40,0.00,,,0.00,Wunderground v.1.15,2013-05-29 02:40:00,
2013-05-28 18:45:00,57.6,33.4,29.81,East,83,3.0,5.0,40,0.00,,,0.00,Wunderground v.1.15,2013-05-29 02:45:00,
2013-05-28 18:55:00,57.0,34.1,29.81,East,97,6.0,6.0,42,0.00,,,0.00,Wunderground v.1.15,2013-05-29 02:55:00,
2013-05-28 19:05:00,56.7,34.4,29.81,East,101,5.0,6.0,43,0.00,,,0.00,Wunderground v.1.15,2013-05-29 03:05:00,
2013-05-28 19:15:00,56.6,34.9,29.81,ESE,102,6.0,8.0,44,0.00,,,0.00,Wunderground v.1.15,2013-05-29 03:15:00,
2013-05-28 19:25:00,56.3,34.6,29.81,ESE,102,6.0,9.0,44,0.00,,,0.00,Wunderground v.1.15,2013-05-29 03:25:00,
2013-05-28 19:35:00,56.3,34.6,29.81,ESE,108,5.0,6.0,44,0.00,,,0.00,Wunderground v.1.15,2013-05-29 03:35:00,
2013-05-28 19:45:00,56.3,34.6,29.80,East,100,5.0,6.0,44,0.00,,,0.00,Wunderground v.1.15,2013-05-29 03:45:00,
2013-05-28 19:50:00,56.3,34.6,29.80,East,100,6.0,6.0,44,0.00,,,0.00,Wunderground v.1.15,2013-05-29 03:50:00,
2013-05-28 20:00:00,56.5,36.0,29.80,East,101,4.0,4.0,46,0.00,,,0.00,Wunderground v.1.15,2013-05-29 04:00:00,
2013-05-28 20:05:00,56.5,36.0,29.80,East,101,3.0,4.0,46,0.00,,,0.00,Wunderground v.1.15,2013-05-29 04:05:00,
2013-05-28 20:10:00,56.2,36.2,29.80,East,101,3.0,4.0,47,0.00,,,0.00,Wunderground v.1.15,2013-05-29 04:10:00,
2013-05-28 20:19:00,55.7,36.8,29.80,ESE,121,5.0,7.0,49,0.00,,,0.00,Wunderground v.1.15,2013-05-29 04:19:00,
2013-05-28 20:25:00,55.6,36.7,29.80,ESE,115,5.0,7.0,49,0.00,,,0.00,Wunderground v.1.15,2013-05-29 04:25:00,
2013-05-28 20:30:00,55.4,36.5,29.81,ESE,119,5.0,5.0,49,0.00,,,0.00,Wunderground v.1.15,2013-05-29 04:30:00,
2013-05-28 20:35:00,55.3,36.5,29.81,ESE,111,5.0,6.0,49,0.00,,,0.00,Wunderground v.1.15,2013-05-29 04:35:00,
2013-05-28 20:45:00,55.1,36.8,29.81,ESE,108,4.0,5.0,50,0.00,,,0.00,Wunderground v.1.15,2013-05-29 04:45:00,
2013-05-28 20:50:00,54.8,36.5,29.81,ESE,107,4.0,4.0,50,0.00,,,0.00,Wunderground v.1.15,2013-05-29 04:50:00,
2013-05-28 21:00:00,54.7,36.9,29.81,ESE,107,2.0,2.0,51,0.00,,,0.00,Wunderground v.1.15,2013-05-29 05:00:00,
2013-05-28 21:10:00,54.4,37.1,29.81,ESE,107,2.0,3.0,52,0.00,,,0.00,Wunderground v.1.15,2013-05-29 05:10:00,
2013-05-28 21:20:00,53.3,37.5,29.81,ESE,114,4.0,4.0,55,0.00,,,0.00,Wunderground v.1.15,2013-05-29 05:20:00,
2013-05-28 21:30:00,53.3,38.0,29.81,ESE,114,2.0,2.0,56,0.00,,,0.00,Wunderground v.1.15,2013-05-29 05:30:00,
2013-05-28 21:40:00,52.5,38.1,29.81,ESE,115,4.0,4.0,58,0.00,,,0.00,Wunderground v.1.15,2013-05-29 05:40:00,
2013-05-28 21:50:00,52.5,38.1,29.81,East,91,4.0,6.0,58,0.00,,,0.00,Wunderground v.1.15,2013-05-29 05:50:00,
2013-05-28 22:00:00,52.0,37.7,29.81,East,83,5.0,5.0,58,0.00,,,0.00,Wunderground v.1.15,2013-05-29 06:00:00,
2013-05-28 22:05:00,52.3,37.5,29.81,East,84,5.0,5.0,57,0.00,,,0.00,Wunderground v.1.15,2013-05-29 06:05:00,
2013-05-28 22:15:00,51.0,37.2,29.81,East,95,5.0,6.0,59,0.00,,,0.00,Wunderground v.1.15,2013-05-29 06:15:00,
2013-05-28 22:25:00,49.9,37.0,29.81,ESE,107,5.0,5.0,61,0.00,,,0.00,Wunderground v.1.15,2013-05-29 06:25:00,
2013-05-28 22:30:00,49.4,36.9,29.81,SE,124,5.0,5.0,62,0.00,,,0.00,Wunderground v.1.15,2013-05-29 06:30:00,
2013-05-28 22:40:00,49.4,37.3,29.81,SE,124,2.0,3.0,63,0.00,,,0.00,Wunderground v.1.15,2013-05-29 06:40:00,
2013-05-28 22:50:00,49.5,37.4,29.81,SE,124,2.0,5.0,63,0.00,,,0.00,Wunderground v.1.15,2013-05-29 06:50:00,
2013-05-28 22:55:00,49.1,37.0,29.81,SE,124,2.0,5.0,63,0.00,,,0.00,Wunderground v.1.15,2013-05-29 06:55:00,
2013-05-28 23:05:00,50.1,37.6,29.81,ESE,102,3.0,3.0,62,0.00,,,0.00,Wunderground v.1.15,2013-05-29 07:05:00,
2013-05-28 23:15:00,49.8,36.9,29.82,ESE,102,2.0,2.0,61,0.00,,,0.00,Wunderground v.1.15,2013-05-29 07:15:00,
2013-05-28 23:20:00,49.4,36.9,29.82,East,101,3.0,3.0,62,0.00,,,0.00,Wunderground v.1.15,2013-05-29 07:20:00,
2013-05-28 23:30:00,48.2,36.6,29.82,East,94,3.0,3.0,64,0.00,,,0.00,Wunderground v.1.15,2013-05-29 07:30:00,
2013-05-28 23:40:00,47.6,36.4,29.82,East,91,1.0,1.0,65,0.00,,,0.00,Wunderground v.1.15,2013-05-29 07:40:00,
2013-05-28 23:45:00,46.2,35.5,29.82,East,91,1.0,1.0,66,0.00,,,0.00,Wunderground v.1.15,2013-05-29 07:45:00,
2013-05-28 23:55:00,45.8,35.8,29.82,East,91,0.0,0.0,68,0.00,,,0.00,Wunderground v.1.15,2013-05-29 07:55:00,